Preview of NWS' New Version of Forecast
This preview is not operational and should not be used for support decisions.

Regional Weather Roundup (RWR)

Issued by National Weather Service (NWS)

                            
000
ASUS42 KTBW 240216
RWRFL 
FLORIDA REGIONAL WEATHER ROUNDUP
NATIONAL WEATHER SERVICE TAMPA BAY RUSKIN FL
1000 PM EDT THU MAY 23 2019

NOTE: "FAIR" INDICATES FEW OR NO CLOUDS BELOW 12,000 FEET WITH NO
SIGNIFICANT WEATHER AND/OR OBSTRUCTIONS TO VISIBILITY.

FLZ001>010-012>015-112-114-115-240300-
PANHANDLE FLORIDA
  
CITY           SKY/WX    TMP DP  RH WIND       PRES   REMARKS
PENSACOLA      FAIR      78  71  79 S7        30.13R                  
PENSACOLA NAS  FAIR      79  71  76 SE10      30.13R                  
MILTON NAS     FAIR      75  71  87 SW3       30.14R                  
CRESTVIEW      FAIR      76  69  79 SW3       30.15R                  
DUKE FIELD     FAIR      77  69  78 CALM      30.13R                  
VALPARAISO     FAIR      79  69  70 CALM      30.13R                  
MARY ESTHER    FAIR      79  69  71 SW3       30.12R                  
PANAMA CITY    FAIR      78  69  73 W5        30.12R                  
TYNDALL AFB    FAIR      79  69  73 CALM      30.12R                  
APALACHICOLA   FAIR      75  67  76 CALM      30.11R                  

STATION/POSITION SKY/WX   TEMP    WIND        PRES    WAVE   SWELL
                          AIR SEA DIR/SP/G            HT/PER HT/PER
                          (F)     (DEG/KT/KT) (MB)    (FT/S) (FT/S)
30.1N   87.6W                                   N/A     4/ 6
29.2N   88.2W                     120/ 12/ 16 1020.1R   4/ 6   3/ 6
PANAMA CITY BEAC           80 84  200/  5/  6 1020.5R
TOWER C          NOT AVBL

$$
FLZ011-016>038-118-127-128-134-139-239-240300-
NORTH FLORIDA
  
CITY           SKY/WX    TMP DP  RH WIND       PRES   REMARKS
MARIANNA       FAIR      85  67  54 SE3       30.11R                  
TALLAHASSEE    FAIR      81  66  60 CALM      30.12R                  
PERRY          FAIR      81  66  60 E9        30.15R                  
LIVE OAK       CLEAR     79  64  61 E8        30.15S                  
CROSS CITY     FAIR      78  64  62 E6        30.15R                  
LAKE CITY      FAIR      72  63  73 E5        30.18R                  
GAINESVILLE    FAIR      75  64  68 E6        30.20R                  
WILLISTON      FAIR      75  65  69 E3        30.17R                  
PALATKA        CLOUDY   N/A N/A N/A E5        30.18R                  
MAYPORT NAS    FAIR      78  67  68 E10       30.18S                  
JACKSONVILLE   FAIR      74  67  78 E6        30.18R                  
JAX NAS        FAIR      78  66  66 E9        30.18S                  
JAX CECIL      CLEAR     75  66  73 SE5       30.18S                  
FERNANDINA BEA FAIR      76  67  72 E9        30.19R                  
ST AUGUSTINE   FAIR      77  68  73 E12       30.19S                  
PALM COAST     FAIR      74  65  74 E6        30.18S                  

STATION/POSITION SKY/WX   TEMP    WIND        PRES    WAVE   SWELL
                          AIR SEA DIR/SP/G            HT/PER HT/PER
                          (F)     (DEG/KT/KT) (MB)    (FT/S) (FT/S)
SHELL POINT      NOT AVBL
KEATON BEACH               80      80/  9/ 11 1020.9R
CEDAR KEY                  80      90/ 18/ 20 1020.9R
FERNANDINA                 80 83  130/  3/  7 1022.9R
30.7N   81.3W                 80                N/A     3/ 6
MAYPORT                    78 83  100/  7/ 11 1022.3S
31.4N   80.9W              78 79  160/ 10/ 12 1022.1S   3/ 5   2/ 5
ST AUGUSTINE               78 81  100/ 13/ 16 1022.1S

$$
FLZ040-043>046-052-053-057-058-063-144-240300-
INTERIOR CENTRAL FLORIDA
  
CITY           SKY/WX    TMP DP  RH WIND       PRES   REMARKS
OCALA          FAIR      77  65  66 E8        30.17S                  
LEESBURG       FAIR      76  64  66 E8        30.17R                  
SANFORD        FAIR      74  66  76 NE7       30.17R                  
ORLANDO EXEC   FAIR      77  65  66 E12       30.16S                  
ORLANDO INTL   FAIR      76  65  68 NE10      30.16S                  
KISSIMMEE      FAIR      77  66  68 E12       30.17                   
WINTER HAVEN   FAIR      77  65  66 E14       30.16R                  
LAKELAND       CLEAR     77  64  65 E16       30.16R                  
BARTOW         FAIR      77  66  69 E10       30.15R                  
SEBRING        FAIR      73  66  77 E8        30.15R                  
OKEECHOBEE     FAIR      72  63  73 NE3       30.14R                  

$$
FLZ041-047-054-059-064-141-147-240300-
EAST CENTRAL FLORIDA
  
CITY           SKY/WX    TMP DP  RH WIND       PRES   REMARKS
DAYTONA BEACH  FAIR      76  68  76 E10       30.17S                  
DELAND         FAIR      72  64  78 E5        30.17S                  
NEW SMYRNA BEA PTCLDY    77  64  65 E10       30.18S                  
CAPE CANAVERAL FAIR      76  58  52 E8        30.15S                  
PATRICK AFB    MOCLDY    78  66  67 E18       30.15R                  
MELBOURNE      FAIR      79  64  60 E17       30.15R                  
VERO BEACH     FAIR      77  63  61 E12G20    30.14S                  
FT PIERCE      FAIR      77  62  59 E16       30.14R                  
STUART         FAIR      77  61  57 E14G22    30.15R                  

STATION/POSITION SKY/WX   TEMP    WIND        PRES    WAVE   SWELL
                          AIR SEA DIR/SP/G            HT/PER HT/PER
                          (F)     (DEG/KT/KT) (MB)    (FT/S) (FT/S)
28.5N   80.2W              78      80/ 14/ 17 1021.7R   5/ 6   2/13
28.9N   78.5W              77 79   60/ 16/ 17 1022.0R   4/ 7   2/12
TRIDENT PIER               77 82   50/ 10/ 12 1022.7R
28.4N   80.5W                 80                N/A     3/ 6
27.5N   80.2W                 78                N/A     5/ 6

$$
FLZ050-056-061-142-242-148-248-149-249-151-251-155-255-
160-260-240300-
WEST CENTRAL FLORIDA
  
CITY           SKY/WX    TMP DP  RH WIND       PRES   REMARKS
CRYSTAL RIVER  FAIR      77  63  61 E8        30.15R                  
INVERNESS      FAIR      77  68  73 E5        30.16S                  
BROOKSVILLE    FAIR      76  62  62 E8        30.15R                  
CLEARWATER AIR FAIR      79  59  50 E15G22    30.13R                  
ST PETE CLEARW FAIR      81  63  54 E14G25    30.12R                  
TAMPA INTL     FAIR      81  62  52 E9G17     30.14R                  
TAMPA EXEC     FAIR      77  63  61 E6        30.15R                  
PLANT CITY     FAIR      79  64  61 E8        30.17R                  
MACDILL AFB    FAIR      80  65  59 E14       30.12R                  
PETER O KNIGHT MOCLDY    81  64  57 E15G23    30.14R                  
ST PETERSBURG    N/A    N/A N/A N/A MISG      30.12R                  
SARASOTA       FAIR      80  63  55 E10       30.10R                  
VENICE         FAIR      81  63  54 E12       30.11R                  

STATION/POSITION SKY/WX   TEMP    WIND        PRES    WAVE   SWELL
                          AIR SEA DIR/SP/G            HT/PER HT/PER
                          (F)     (DEG/KT/KT) (MB)    (FT/S) (FT/S)
27.3N   84.2W                 80                N/A     3/ 6
CLEARWATER BEACH           82 86   70/ 14/ 19 1020.0R
MIDDLE TAMPA BAY           80     100/ 16/ 18 1020.0R
VENICE                     80 83   70/ 10/ 13 1019.6R

$$
FLZ066-069-070-075>078-162-262-165-265-240300-
SOUTHWEST FLORIDA AND KEYS
  
CITY           SKY/WX    TMP DP  RH WIND       PRES   REMARKS
PUNTA GORDA    FAIR      75  62  64 E9        30.13R                  
FT MYERS       FAIR      77  64  64 E10       30.10R                  
SOUTHWEST INTL FAIR      78  64  61 E13       30.11R                  
NAPLES         FAIR      79  67  66 E13       30.09R                  
MARCO ISLAND   FAIR      79  68  69 E12       30.10R                  
IMMOKALEE      CLOUDY    75  66  73 E12       30.10R                  
MARATHON       FAIR      84  70  62 NE14G28   30.06R                  
KEY WEST NAS   FAIR      83  71  67 E15       30.06R                  
KEY WEST INTL  FAIR      81  71  71 E12       30.06R                  

STATION/POSITION SKY/WX   TEMP    WIND        PRES    WAVE   SWELL
                          AIR SEA DIR/SP/G            HT/PER HT/PER
                          (F)     (DEG/KT/KT) (MB)    (FT/S) (FT/S)
NAPLES                     80 85              1019.0R
DRY TORTUGAS               82     110/ 18/ 20 1017.6R
SAND KEY                   81                 1017.6R
SOMBRERO KEY               81                 1016.9R

$$
FLZ067-068-071>074-168-172>174-240300-
SOUTHEAST FLORIDA 
  
CITY           SKY/WX    TMP DP  RH WIND       PRES   REMARKS
BOCA RATON     PTCLDY    79  63  57 E17G25    30.11S                  
FT LAUDER-EXEC FAIR      79  62  56 E17G23    30.10S                  
FT LAUDERDALE  FAIR      78  64  61 E14G23    30.09R                  
POMPANO BEACH  MOCLDY    80  64  58 E17G23    30.11R                  
PEMBROKE PINES FAIR      78  63  59 NE14G22   30.12R                  
OPA LOCKA      FAIR      79  65  62 NE13      30.11R                  
MIAMI          FAIR      80  65  59 NE12G20   30.10R                  
WEST KENDALL   FAIR      79  66  64 NE16      30.09R                  
HOMESTEAD      MOCLDY    79  69  71 NE16      30.08R                  

STATION/POSITION SKY/WX   TEMP    WIND        PRES    WAVE   SWELL
                          AIR SEA DIR/SP/G            HT/PER HT/PER
                          (F)     (DEG/KT/KT) (MB)    (FT/S) (FT/S)
PORT EVERGLADES            79      60/ 14/ 18 1019.1S
VIRGINIA KEY               80 85   40/ 14/ 20 1018.4R
LAKE WORTH                 78 82              1021.0R
SETTLEMENT POINT           78      70/ 19/ 22 1020.1R

$$